Theta_e
314 314 314 314 315 315 315 315 315 315 316 316 316 315 311 309 308 307 307 307 307 307 307 306 306 307 307 307 309 309 313 315 314 314 313 314 315 316 316 315 315 314 312 311 312 313 313 312 312 312 316 318 318 318 315 319 325 327 336 333 321 322 320 320 324 320 320 321 318 316 317 319 316 314 313 312 316 317 316 321 324 329 330 328 328 324 329 338
314 314 313 314 315 315 315 315 315 315 315 315 315 314 311 310 308 307 307 307 307 308 307 306 306 307 307 308 309 310 314 316 317 316 313 314 315 316 318 317 315 312 311 312 313 313 314 314 311 315 321 320 317 319 317 316 323 333 335 326 327 334 322 319 325 319 317 318 317 317 316 317 316 315 314 314 316 316 317 318 325 337 336 330 328 327 333 336
314 313 313 314 315 314 314 314 315 315 315 315 314 313 312 311 308 307 307 307 307 308 307 306 307 308 308 309 309 311 313 315 316 316 314 315 316 316 317 316 313 311 312 312 313 314 314 314 311 316 322 320 319 320 320 318 320 329 330 322 330 338 323 317 320 318 318 317 318 317 313 314 315 314 313 316 316 315 319 322 324 334 343 338 331 329 333 335
314 313 313 314 314 314 314 314 314 314 314 315 314 312 312 311 308 307 306 307 307 307 307 307 308 308 308 309 309 311 313 312 313 317 315 314 319 317 314 312 311 311 312 312 315 315 314 312 310 317 320 319 321 319 319 321 318 320 327 329 327 326 320 317 317 317 316 315 318 317 314 314 313 313 313 316 317 316 319 323 323 330 347 340 331 330 331 333
314 313 313 313 314 314 313 314 314 314 314 314 313 311 310 310 308 307 306 306 306 306 307 307 308 308 308 308 310 313 312 309 313 318 316 315 319 316 311 310 311 312 311 313 314 314 312 311 311 318 320 317 320 320 318 318 318 317 319 323 322 319 317 316 317 317 314 313 317 317 315 314 312 313 315 317 319 320 318 319 320 326 343 339 332 331 330 331
314 313 313 313 313 313 313 313 313 313 314 313 313 311 310 309 308 308 306 307 306 306 307 308 308 308 308 308 311 314 312 309 314 318 317 317 318 313 310 310 312 312 312 313 313 312 312 311 312 316 318 317 318 319 317 314 316 320 316 316 319 318 317 317 317 317 314 315 317 317 315 314 314 314 315 315 317 320 318 316 314 319 331 333 330 330 331 331
313 313 313 313 313 313 313 313 313 313 313 313 313 311 310 309 308 307 307 307 306 306 307 307 308 308 309 310 313 316 314 312 314 317 317 317 315 310 310 311 312 313 313 313 312 314 315 313 314 316 317 316 316 316 316 314 317 324 319 315 316 316 317 317 317 317 316 318 317 314 313 314 317 315 312 313 316 319 316 309 307 315 325 328 329 331 330 330
313 313 313 313 312 313 313 313 312 313 313 313 313 312 311 310 308 307 307 307 306 307 307 308 308 308 310 312 316 318 314 314 315 315 315 315 313 309 311 313 313 314 313 313 313 315 315 313 313 314 316 315 314 316 314 314 318 321 318 316 316 315 317 317 316 318 318 317 314 313 314 315 316 313 312 316 318 318 315 310 313 322 327 329 331 332 329 329
313 313 313 312 312 312 312 312 312 313 312 313 313 312 312 311 310 308 307 307 306 306 307 308 308 309 312 313 315 315 312 316 316 313 313 314 313 311 312 314 314 314 313 314 315 313 313 315 314 313 315 313 313 316 314 316 319 318 318 318 317 315 315 315 315 319 319 316 314 314 316 315 314 312 315 321 319 317 317 321 328 331 332 332 331 330 329 328
313 312 312 312 312 311 311 312 312 312 312 312 312 312 312 312 311 309 307 306 306 306 307 308 308 310 313 313 311 310 312 317 315 312 312 313 313 312 313 314 314 315 314 314 314 312 314 315 314 313 314 314 313 314 313 315 316 318 320 318 318 318 315 315 315 316 318 316 315 316 316 316 314 314 317 320 315 314 320 327 329 334 336 332 331 329 328 327
313 312 312 311 311 311 311 311 311 311 312 312 312 312 312 312 312 310 308 306 306 306 307 308 309 311 314 313 310 310 314 317 313 312 312 312 313 313 315 314 314 315 314 314 313 313 315 313 311 312 314 313 314 315 313 313 314 316 319 317 319 320 316 315 316 315 316 315 315 316 316 316 314 316 319 316 312 312 319 326 326 333 336 330 331 329 326 327
313 312 312 311 311 311 310 311 311 311 311 311 312 312 311 311 311 310 308 306 306 306 307 308 309 312 313 312 311 313 316 316 313 312 313 313 314 315 316 315 314 316 315 314 314 314 314 314 312 313 313 313 315 315 314 315 315 316 318 317 320 325 319 314 315 316 316 315 315 315 314 316 316 317 318 314 313 313 316 322 324 327 327 326 329 328 326 326
313 312 312 311 310 310 310 310 310 311 310 311 311 311 311 311 311 310 308 306 306 306 307 308 310 314 312 310 313 316 316 315 312 312 313 314 315 316 316 315 314 316 316 315 315 314 314 314 314 315 314 316 316 312 314 316 315 316 317 319 321 324 319 314 315 316 315 315 315 313 313 320 321 318 315 311 311 312 315 319 320 320 319 319 323 325 327 324
313 312 311 311 310 310 310 310 310 310 310 310 311 311 312 311 310 309 307 307 307 307 308 309 313 315 311 310 314 317 317 313 312 313 314 314 315 315 315 314 315 315 315 315 315 314 315 314 313 314 313 316 315 311 319 320 318 317 313 322 324 316 318 318 316 317 314 314 314 311 313 320 321 318 315 311 311 313 316 319 319 318 316 315 317 319 323 322
313 312 311 311 310 309 309 309 310 310 310 311 311 311 311 310 309 309 308 308 308 308 309 311 315 314 311 313 315 316 316 312 313 314 314 315 314 315 314 314 314 313 313 314 314 314 314 313 315 317 313 313 314 315 323 322 325 324 312 322 324 313 320 324 317 317 315 313 314 312 315 320 320 319 316 312 313 313 315 319 318 317 316 314 314 313 316 316
313 312 311 311 310 309 309 309 310 310 311 312 311 311 309 309 310 310 310 309 310 311 311 314 316 311 311 315 315 315 314 312 314 314 315 315 314 315 314 313 313 312 314 313 315 314 313 316 316 315 314 315 316 320 324 321 327 327 314 319 323 315 320 321 316 318 317 315 315 312 316 320 319 320 317 312 314 315 315 319 318 318 317 314 313 312 312 312
313 312 310 310 309 309 309 309 310 311 311 312 311 310 309 310 310 311 312 312 313 313 312 316 315 310 309 311 314 315 313 313 314 314 316 315 315 315 312 314 313 312 315 313 315 314 313 317 314 313 318 317 318 320 319 316 319 322 317 318 321 319 318 318 318 318 315 315 316 314 315 319 320 321 319 314 313 314 317 320 321 319 318 315 313 311 311 311
312 311 309 309 309 309 308 309 310 311 312 311 311 311 311 313 312 313 314 314 314 312 312 313 311 311 310 310 315 316 312 313 315 315 315 315 314 314 313 314 312 312 316 315 315 315 316 319 317 320 322 316 316 318 317 318 319 320 320 318 318 316 315 318 321 317 314 315 317 317 316 319 321 319 319 316 311 314 318 319 318 318 318 317 314 313 312 311
310 309 308 309 309 308 309 310 310 311 312 311 312 313 313 313 313 315 314 313 311 309 312 312 309 313 313 311 316 316 313 314 314 314 314 315 314 314 314 314 315 317 318 317 315 316 321 322 318 320 320 316 315 315 320 325 323 322 324 325 324 320 317 319 321 317 314 316 318 319 318 320 320 317 319 318 312 313 318 317 316 316 316 315 314 313 312 312
309 308 309 309 309 309 310 311 311 311 312 312 313 313 313 315 315 316 314 313 311 309 311 313 311 315 315 314 317 314 313 313 313 314 314 314 315 315 315 314 320 321 319 322 318 316 322 321 318 319 318 318 317 315 319 321 319 321 325 328 326 321 319 318 319 318 314 315 319 319 319 320 319 318 318 315 311 313 317 318 318 316 315 314 314 314 312 312
309 308 310 310 310 310 311 311 311 312 312 313 313 313 314 316 315 314 314 313 310 307 310 311 311 316 315 314 315 312 313 313 313 314 314 314 315 315 316 316 320 319 319 324 320 317 321 319 318 320 317 316 316 317 319 319 320 322 323 326 323 320 321 317 316 318 315 314 319 319 318 319 319 318 316 312 311 314 316 316 316 315 313 312 313 313 313 312
309 309 309 310 310 310 311 312 312 312 313 313 314 314 314 312 310 310 311 311 308 306 309 311 312 317 314 312 313 312 315 316 314 315 315 314 315 314 317 319 320 319 318 320 320 319 321 321 320 319 314 314 315 316 321 324 327 327 323 323 322 319 319 317 316 317 314 315 321 323 321 318 317 317 315 313 313 313 313 313 313 313 312 311 312 312 312 312
310 310 310 311 311 311 311 313 314 313 313 313 314 314 312 311 311 310 309 309 310 309 311 313 318 320 315 313 314 313 314 315 315 316 314 314 316 316 318 319 320 321 317 318 321 320 320 322 322 318 313 315 316 316 321 323 324 327 325 322 321 320 320 319 318 316 314 313 318 322 320 317 317 320 319 313 310 312 314 313 311 311 312 311 311 312 312 312
312 312 312 312 312 313 313 314 314 313 313 314 314 312 310 311 313 311 311 311 311 312 310 310 316 320 317 314 314 313 313 314 315 314 313 314 316 316 317 319 320 320 318 319 320 319 320 317 315 316 317 320 319 316 319 321 318 323 332 332 325 325 324 320 318 318 317 314 316 318 317 322 327 330 330 318 310 312 313 313 314 314 311 310 312 312 311 312
314 314 314 314 315 315 314 315 314 312 314 314 314 312 310 311 312 311 313 312 310 311 309 308 312 317 316 313 314 314 314 314 316 314 312 314 317 315 315 317 319 319 319 319 318 319 319 312 312 317 318 321 322 319 321 323 319 319 329 331 325 330 329 321 321 325 323 317 315 312 314 331 338 332 329 321 317 316 313 314 319 318 312 310 315 315 312 312
316 316 315 314 315 315 314 316 315 312 315 314 313 313 311 312 311 311 313 313 311 311 309 310 311 313 313 314 316 316 314 314 314 312 312 313 314 315 315 315 316 318 318 317 319 321 317 313 316 321 321 321 321 321 318 321 323 318 320 321 323 333 330 323 323 322 322 316 311 313 315 322 327 323 321 318 319 320 316 318 320 316 312 310 312 313 312 313
317 317 317 316 315 315 316 317 315 313 315 314 313 313 311 312 310 309 313 312 311 312 310 309 308 310 313 313 314 314 313 315 313 312 313 313 312 313 316 317 315 316 316 317 321 319 316 316 319 323 326 323 321 322 317 320 325 318 317 321 326 330 326 328 329 324 324 318 317 326 322 314 318 319 319 316 316 320 319 318 318 314 313 314 316 318 316 316
317 316 317 317 315 316 317 317 314 313 314 313 313 311 311 313 310 310 314 310 309 311 309 307 307 311 313 310 312 314 313 315 316 313 312 312 312 314 319 320 318 319 315 317 321 317 315 320 320 325 328 324 322 322 318 322 326 319 316 321 324 325 328 335 337 332 324 315 322 331 317 312 323 325 322 316 313 318 319 317 317 314 315 319 325 329 326 322
317 316 317 317 316 316 317 317 315 314 314 313 313 311 311 310 308 311 313 309 308 310 308 308 308 311 313 310 312 314 313 315 317 315 312 312 311 312 317 318 319 320 314 317 325 319 315 316 318 324 325 322 321 319 317 324 326 318 315 319 321 324 330 333 334 330 319 314 327 330 314 312 320 326 327 316 310 318 321 317 316 315 317 322 329 333 332 331
316 318 318 318 317 317 318 317 316 315 313 312 312 311 310 310 310 309 308 309 311 310 307 308 309 313 314 312 312 313 315 317 316 315 315 315 314 312 313 313 318 324 321 324 327 320 314 312 314 318 318 319 319 316 317 321 318 315 320 324 322 326 332 333 333 325 313 321 332 324 317 313 313 324 329 315 311 316 316 316 317 318 321 324 331 335 335 338
315 317 318 318 318 318 318 318 317 316 313 312 312 311 310 314 315 309 306 310 315 311 308 308 310 313 313 312 314 314 316 318 315 315 316 315 316 315 314 313 318 325 324 325 325 319 316 314 315 316 315 317 321 319 317 317 316 319 328 328 320 325 329 331 332 321 314 328 327 318 316 314 312 323 324 317 317 315 312 316 317 317 322 326 333 336 337 342
314 317 317 317 318 318 318 318 317 317 314 313 312 312 311 312 312 310 309 311 313 312 311 311 310 312 313 313 316 316 318 319 315 315 318 318 316 316 317 318 321 322 320 322 323 319 318 318 316 315 314 316 323 324 319 320 323 322 324 325 321 322 321 324 330 323 320 325 317 314 317 314 315 319 316 317 318 315 315 317 315 315 319 327 331 334 338 343
312 314 316 317 318 318 318 318 317 318 316 314 313 314 315 312 309 310 313 312 311 312 313 314 312 312 313 313 316 316 317 317 315 315 317 318 317 316 317 319 321 323 322 323 324 320 321 324 318 315 316 315 319 323 320 322 323 319 319 323 323 322 317 321 325 318 317 321 314 311 315 316 318 315 313 317 313 313 318 318 318 317 318 325 328 332 338 335
310 312 315 316 317 317 318 318 317 317 317 313 311 313 315 313 311 312 313 311 312 313 314 314 313 311 312 314 314 315 315 315 314 316 317 317 317 317 317 315 315 324 325 321 322 322 322 325 321 318 319 316 315 319 324 324 321 318 318 317 319 326 326 322 323 319 320 322 316 310 314 323 321 310 314 319 313 312 317 317 318 316 318 327 329 330 332 328
308 309 312 315 316 317 317 317 316 317 316 312 310 312 311 310 313 313 311 313 316 316 313 312 312 312 313 313 312 313 316 317 314 315 317 317 317 317 317 314 314 322 324 318 319 319 318 321 321 317 315 316 317 317 321 323 320 317 315 313 315 322 326 319 315 320 320 318 318 314 318 326 318 308 312 314 310 311 313 314 314 313 318 326 327 327 327 327
307 308 311 313 315 316 316 317 316 315 315 313 310 311 311 312 316 316 313 315 317 314 311 312 313 313 312 311 313 312 314 318 316 315 317 316 316 316 316 315 315 317 317 319 320 318 317 318 317 315 314 315 316 315 317 319 319 316 314 318 319 317 325 321 310 312 313 312 317 316 319 325 317 312 317 313 310 311 311 313 313 313 319 320 319 322 324 325
306 307 309 310 314 315 315 315 314 314 315 314 310 310 312 313 316 320 320 316 313 312 313 313 313 314 313 312 314 313 314 318 316 316 317 316 316 316 316 316 315 313 314 318 319 318 321 320 315 315 316 313 312 315 318 316 317 320 320 322 317 311 320 322 314 319 318 315 319 316 316 322 319 318 322 315 311 312 311 313 314 315 318 317 316 319 321 322
304 306 308 309 312 314 314 313 311 314 318 315 311 312 316 315 313 318 319 313 311 314 315 315 313 312 313 313 313 312 313 317 316 316 316 315 316 317 316 315 314 313 312 313 314 316 320 320 315 313 317 315 313 316 318 314 312 319 322 319 317 317 321 318 314 321 320 315 321 320 313 314 316 320 322 314 312 314 312 312 315 316 316 316 316 318 320 323
302 306 310 310 311 312 314 314 312 316 320 315 312 313 317 317 313 316 317 314 316 316 314 317 316 312 313 313 313 312 313 315 316 316 316 314 316 315 314 315 314 313 312 311 312 314 316 317 315 312 313 316 316 316 319 319 313 314 314 312 317 324 324 319 315 317 317 315 319 321 318 317 318 319 320 314 312 313 312 314 315 314 314 315 315 317 318 320
301 308 310 308 309 312 314 314 313 317 318 314 314 314 314 315 315 316 315 314 316 315 314 320 318 313 315 314 312 312 314 316 315 316 316 313 313 313 312 313 314 313 312 310 312 314 313 312 312 313 312 314 319 318 317 319 316 315 316 314 316 318 317 319 317 315 318 321 321 319 317 320 320 316 317 314 312 313 315 317 315 314 314 315 314 316 316 317
302 307 308 307 310 312 313 314 313 316 316 314 314 315 314 315 316 317 315 313 314 314 316 321 319 316 317 314 312 313 314 316 315 315 315 312 312 313 312 312 314 313 312 310 312 316 314 311 316 318 315 317 322 319 314 316 316 315 316 316 316 317 316 318 316 313 315 317 321 320 314 318 321 314 313 315 311 312 316 316 316 315 314 314 314 316 317 317
303 306 307 308 310 311 313 314 313 313 314 313 314 315 314 316 316 316 316 315 316 315 316 319 320 321 320 315 314 315 314 316 315 315 316 314 313 313 312 313 315 313 313 312 312 315 317 318 322 322 319 319 319 314 311 314 316 315 316 317 317 316 317 319 319 318 315 313 316 317 315 322 323 310 308 312 310 311 317 318 317 316 315 317 318 318 318 318
305 306 307 309 310 310 312 313 311 311 311 312 313 313 314 316 316 315 315 315 317 317 317 319 318 318 319 316 315 315 313 314 315 315 317 315 313 315 315 315 314 312 313 313 312 313 315 318 318 319 321 322 319 315 313 312 313 315 317 318 318 317 321 326 326 322 319 317 317 315 315 324 325 313 310 311 310 312 317 317 316 315 316 320 321 320 320 319
304 304 306 308 308 309 312 312 312 311 310 312 312 312 313 315 315 315 315 316 318 318 319 319 316 314 318 318 317 316 314 314 314 314 316 316 312 315 319 318 314 312 312 314 314 313 313 316 317 316 319 322 321 320 318 314 314 318 320 319 319 320 321 321 319 315 315 321 321 317 317 321 320 314 312 312 311 313 314 315 316 316 314 316 318 318 317 316
302 302 304 306 306 308 311 311 311 311 310 312 312 312 313 314 314 316 315 316 319 319 318 316 315 317 319 318 318 318 315 316 317 316 317 317 313 315 320 319 313 311 315 318 316 312 314 318 318 316 316 316 317 318 319 318 316 318 322 321 318 319 318 316 317 316 316 321 320 316 316 315 312 310 310 312 314 314 313 314 315 315 313 313 314 314 314 315
303 302 303 305 305 307 308 309 311 312 311 312 313 313 313 313 315 316 315 315 318 319 317 316 316 318 318 317 319 319 316 317 318 317 318 319 317 317 318 317 314 314 319 321 316 316 322 320 315 314 314 312 313 315 318 321 320 317 321 320 316 316 316 317 321 319 316 318 317 315 315 314 312 312 312 315 317 317 316 315 314 314 315 315 315 317 320 321
303 303 304 305 306 307 307 308 311 312 312 312 313 313 313 313 315 316 314 315 317 317 317 317 317 317 318 318 320 320 318 318 318 317 319 320 318 317 316 315 315 316 318 317 314 318 323 319 314 314 314 313 315 319 320 320 319 318 319 319 317 316 316 317 318 317 315 316 316 315 315 314 313 314 316 319 321 318 317 316 315 315 317 319 318 321 324 322
301 302 302 303 304 307 307 307 309 310 312 313 313 313 313 313 314 316 316 315 316 316 317 317 317 318 320 320 320 319 318 318 318 317 318 319 318 318 317 315 314 316 317 314 315 320 321 317 316 314 314 317 320 322 321 318 317 318 317 318 317 316 316 317 317 316 317 317 315 315 317 316 313 314 316 318 317 315 313 313 313 314 316 319 320 319 319 317
298 300 301 300 302 304 305 306 308 309 311 312 312 313 314 313 313 315 316 316 316 316 317 318 318 318 319 320 319 319 318 318 319 318 318 319 318 318 320 318 315 317 319 315 315 319 319 319 320 315 314 319 320 318 317 316 317 318 317 317 316 315 315 316 315 315 315 316 316 317 319 318 313 314 318 318 316 315 315 315 315 315 316 319 321 319 315 314
299 300 301 301 302 303 304 306 308 309 310 311 312 312 312 313 313 314 315 316 316 317 316 317 318 318 318 318 318 319 319 320 321 320 319 319 318 318 320 320 316 316 319 318 317 317 315 318 321 318 316 319 318 315 315 317 318 318 317 317 315 314 314 314 314 316 315 315 316 316 318 316 312 314 318 317 316 315 315 316 315 316 318 319 319 318 315 313
298 297 299 302 304 303 303 305 307 309 310 310 310 311 311 312 313 313 314 314 315 317 316 316 318 317 316 317 318 318 319 320 322 323 322 320 320 319 319 320 319 318 318 318 319 321 319 319 320 319 319 320 317 315 316 317 318 318 319 319 316 314 315 314 313 315 315 315 316 316 316 315 314 317 317 316 316 316 316 317 316 315 316 317 316 315 313 311
297 297 299 302 304 303 302 304 306 307 309 309 309 309 309 310 311 313 314 313 313 316 316 315 316 316 315 316 316 316 317 319 320 321 321 319 318 317 317 319 320 321 322 319 318 321 323 322 321 321 321 319 317 316 317 318 319 319 319 318 316 313 315 314 314 315 315 314 315 316 315 313 315 319 318 316 317 317 316 317 317 314 312 312 312 310 309 309
Wind_Speed
13 13 14 13 13 12 11 12 11 10 10 10 9 10 12 14 15 15 15 14 14 14 13 12 11 10 10 7 6 6 6 8 9 11 9 9 12 10 10 11 7 5 5 5 6 6 4 3 3 4 5 4 2 1 1 2 2 4 3 3 2 3 3 5 7 7 4 4 6 5 5 8 5 2 1 2 5 3 2 3 3 4 4 2 7 5 17 30
13 11 13 14 13 12 11 11 11 10 9 9 8 10 12 13 15 14 13 14 14 14 13 12 11 10 9 7 6 7 7 8 6 7 10 10 11 10 8 8 7 6 6 5 5 6 5 2 2 5 5 2 1 2 1 1 3 4 3 3 3 5 4 5 6 6 3 4 6 4 2 5 6 4 3 2 1 2 2 3 6 5 5 5 3 8 24 29
12 11 13 15 13 12 11 10 10 9 9 7 8 10 12 12 14 14 13 14 14 13 13 11 10 9 8 8 6 7 8 6 2 5 10 11 11 9 7 7 7 7 6 5 5 4 5 4 5 6 5 2 1 2 2 1 1 2 4 2 5 6 4 4 6 6 5 4 7 4 2 2 3 3 2 4 3 1 4 4 1 3 6 3 2 12 23 24
12 11 13 15 14 13 11 11 10 9 8 7 8 11 11 11 12 13 13 14 13 12 12 10 9 8 8 8 6 8 8 4 1 5 10 13 11 8 7 8 8 7 7 6 5 3 4 6 6 5 5 2 3 3 1 1 1 2 4 3 5 3 1 3 6 5 5 5 7 5 4 1 2 2 2 7 6 2 6 7 7 8 8 5 4 10 19 20
12 11 13 15 14 13 12 11 10 8 8 6 8 10 10 10 11 12 13 13 13 12 10 9 8 8 8 7 7 9 6 3 3 5 10 13 11 9 9 9 8 8 8 6 5 4 4 5 5 5 4 2 2 3 1 2 2 2 1 4 5 3 1 2 4 2 2 5 6 7 5 4 2 1 3 9 7 6 7 8 11 10 10 12 10 12 15 16
12 11 13 15 14 13 12 11 10 8 7 6 7 9 9 10 11 12 13 12 12 11 9 9 8 8 8 7 7 7 5 2 2 5 10 12 10 10 10 9 8 7 7 6 5 5 4 4 5 3 3 2 2 2 2 3 2 2 1 2 3 4 1 2 1 1 3 7 7 6 4 3 4 1 3 8 8 8 6 6 8 8 11 15 14 13 13 13
13 11 12 15 14 14 12 11 10 8 7 5 6 8 8 9 11 12 12 12 11 10 9 9 8 9 8 7 6 3 2 2 2 6 9 10 11 11 11 9 8 7 7 7 6 5 4 5 4 4 5 3 3 3 1 2 5 5 2 1 1 3 2 3 3 1 4 7 6 4 3 3 5 3 1 5 9 9 5 3 4 8 12 14 12 12 13 15
12 11 13 15 14 13 12 11 9 8 7 6 6 7 8 8 10 11 12 12 10 10 9 9 9 9 9 8 5 3 1 3 4 8 9 11 11 11 11 10 9 7 7 7 6 6 5 5 5 4 4 1 4 3 1 3 5 4 3 2 2 1 2 4 4 5 5 4 2 4 4 2 5 3 1 7 11 8 3 2 4 10 11 11 11 12 12 13
12 12 14 15 16 14 12 11 9 8 7 6 6 7 7 7 9 10 11 11 10 10 9 10 10 10 10 7 5 3 2 3 6 8 9 11 11 11 11 9 10 8 7 6 6 8 5 4 5 4 4 3 4 4 1 3 1 2 4 2 3 2 4 4 4 5 4 2 2 5 2 3 2 1 3 9 8 3 3 6 6 9 9 10 10 12 12 11
12 12 13 14 15 14 12 11 10 8 7 6 6 6 7 7 9 10 11 11 10 10 9 10 11 11 11 5 5 3 4 4 8 9 9 11 11 11 10 9 10 9 8 6 5 7 4 5 6 5 5 2 3 3 2 4 3 3 6 5 5 2 4 4 2 4 4 1 2 4 3 4 2 2 4 7 5 1 6 6 5 8 9 11 9 10 13 14
13 12 12 12 13 13 12 12 11 8 7 7 5 6 7 7 9 9 10 10 10 10 10 11 11 11 9 4 5 4 3 5 8 8 9 11 11 11 10 9 10 9 8 5 6 6 5 9 9 5 2 1 3 2 0 2 3 4 6 5 7 5 2 4 3 3 3 1 1 4 3 3 2 2 5 3 6 0 6 6 5 7 7 9 9 9 11 14
13 12 11 11 11 11 11 12 11 8 7 7 6 6 6 7 9 9 9 9 10 10 10 11 11 11 5 3 3 4 3 6 8 8 9 10 11 11 9 9 9 8 8 5 6 6 6 9 10 6 1 3 4 2 2 2 4 3 5 4 6 8 3 3 2 3 2 1 2 2 1 5 2 5 6 1 5 3 4 5 5 7 6 6 7 7 8 12
13 12 10 10 9 9 11 11 10 8 8 8 7 5 6 7 7 8 8 8 10 10 11 12 12 10 4 1 2 3 4 6 7 8 9 9 10 10 8 9 9 7 6 6 7 7 6 8 9 6 2 5 3 1 4 4 4 1 4 4 2 7 4 3 2 3 0 1 3 2 0 7 7 9 7 3 3 4 2 6 6 6 6 5 6 6 7 11
12 11 11 11 9 9 11 11 10 9 8 8 6 5 5 5 6 7 8 9 10 11 11 11 11 7 3 1 3 3 5 6 7 8 8 9 9 9 8 8 8 7 5 6 8 7 5 8 9 7 3 4 3 2 5 6 4 2 3 3 2 1 4 5 2 1 3 1 3 6 2 6 8 10 8 5 1 6 6 7 7 7 6 6 6 6 8 10
12 12 12 11 10 10 11 11 10 9 8 7 5 5 5 5 6 6 8 9 10 11 11 10 10 5 2 2 2 3 6 6 8 8 7 9 9 7 7 8 8 7 6 6 8 7 6 9 8 6 1 2 4 6 5 4 4 4 2 2 4 2 5 7 2 2 3 1 5 7 2 6 8 10 7 4 2 7 7 7 7 7 7 7 6 7 8 9
13 13 13 11 11 11 12 11 9 8 8 6 5 6 5 5 5 7 8 9 9 9 8 7 7 4 2 1 0 3 5 5 8 8 7 9 8 6 8 9 7 8 8 7 8 8 7 7 4 3 3 3 5 7 4 4 4 4 3 2 2 1 3 5 2 1 1 0 3 3 2 4 5 7 7 4 5 5 4 6 7 7 8 7 6 7 7 8
14 13 13 12 12 12 12 11 10 9 8 6 6 6 6 6 7 8 9 10 10 8 7 6 4 2 1 1 2 2 4 6 9 9 7 7 7 8 10 7 5 8 8 7 7 5 5 5 2 0 3 4 3 6 5 1 3 3 2 1 3 3 2 2 3 3 4 2 1 2 1 6 7 8 9 5 4 3 3 6 7 6 7 7 6 7 7 8
13 12 11 12 13 13 13 11 10 9 8 7 8 10 10 10 8 8 10 13 12 8 5 3 2 1 2 3 3 3 4 8 10 9 8 7 7 9 7 4 5 7 7 5 3 3 3 4 2 1 4 3 2 5 5 5 5 5 3 3 2 2 3 3 3 2 3 3 1 2 2 9 11 10 11 9 1 2 7 7 7 7 7 7 7 7 8 9
12 11 11 12 13 13 13 12 10 9 8 9 12 15 14 12 9 6 7 8 7 5 2 3 4 3 4 4 3 3 7 10 10 8 7 7 8 7 6 6 7 7 6 3 2 1 2 3 4 3 2 3 5 6 7 7 8 9 6 5 5 3 4 5 4 4 1 3 2 4 5 9 10 10 12 10 2 1 8 7 7 8 7 8 7 7 9 9
11 11 13 12 13 14 12 12 10 9 10 13 17 16 11 7 6 2 1 1 2 2 2 4 4 3 0 1 3 8 10 8 5 4 6 7 8 8 6 5 6 6 4 4 2 1 3 4 3 5 7 8 8 7 6 5 6 7 6 5 4 4 2 4 3 5 1 2 3 3 4 9 10 11 12 10 5 4 9 9 9 9 8 8 8 9 10 11
13 14 15 14 13 13 12 11 10 10 11 16 19 10 4 5 4 3 3 3 3 0 1 4 4 2 0 2 7 9 7 4 2 1 5 5 7 8 1 3 5 3 0 3 3 2 5 5 7 7 8 7 6 7 7 6 6 5 6 5 1 2 2 3 1 4 3 1 3 2 4 10 11 11 12 9 6 7 10 10 10 11 10 8 9 11 11 10
15 15 15 15 14 13 12 10 10 10 11 16 14 3 2 4 4 7 6 1 3 1 2 2 3 3 1 4 7 4 4 4 1 1 3 3 3 5 1 4 6 3 1 2 3 3 4 3 9 7 5 6 6 5 7 7 6 5 4 5 3 2 2 3 2 4 5 1 3 5 5 10 10 11 13 10 8 9 8 9 10 10 10 9 9 11 10 10
16 15 14 13 12 12 11 10 10 11 12 15 10 3 2 3 5 8 6 4 2 1 2 1 3 2 2 2 5 2 4 5 5 4 3 4 2 3 4 5 6 5 2 3 6 5 3 5 7 5 7 8 6 4 8 7 4 5 4 5 2 2 1 1 2 3 3 2 1 4 5 8 7 7 10 8 6 6 6 7 9 9 10 11 10 8 8 10
16 16 14 13 12 11 9 8 9 10 13 13 9 5 4 5 8 7 3 4 2 1 0 1 2 3 3 3 4 4 4 2 5 5 4 5 4 2 4 5 6 5 3 5 8 7 4 5 2 7 6 7 7 4 6 7 2 1 3 6 3 3 4 2 1 2 3 3 3 3 5 7 5 5 7 6 4 5 5 6 8 8 8 9 9 8 8 9
15 15 13 11 10 9 8 5 6 10 13 9 7 6 5 6 8 6 3 3 1 1 1 1 1 3 4 4 3 4 3 1 1 2 3 5 5 3 3 2 4 5 4 5 7 5 4 3 3 8 4 6 8 4 5 7 3 2 3 6 6 6 6 2 2 4 4 4 4 5 4 6 6 5 7 5 7 7 6 6 8 8 6 6 7 8 8 8
15 15 14 11 8 10 9 3 6 12 10 5 5 6 5 6 8 5 4 4 1 2 1 2 2 5 7 4 2 4 4 1 1 1 2 4 3 3 3 1 2 3 5 5 4 2 2 2 3 7 6 6 7 3 4 6 6 1 4 5 6 6 7 5 4 4 2 2 3 4 3 5 7 5 7 6 8 10 8 6 8 7 7 6 6 7 6 7
13 12 14 14 11 11 7 2 7 12 6 4 7 6 4 7 7 4 4 4 3 2 4 1 1 6 8 2 3 6 3 4 2 3 2 2 0 3 4 3 2 2 3 4 2 2 2 3 5 5 6 6 5 3 5 6 8 3 3 6 7 7 7 6 6 4 1 3 4 5 4 2 6 6 7 6 7 10 9 8 9 8 8 8 7 7 6 7
14 14 12 13 13 10 4 3 9 8 3 5 9 7 5 8 7 3 5 2 2 2 4 1 0 6 4 1 4 5 2 2 5 2 1 3 0 3 4 5 5 4 1 4 4 3 1 3 3 5 6 4 4 4 6 8 6 3 4 6 6 6 7 5 6 4 1 2 4 5 2 2 6 7 6 6 5 8 9 8 9 8 8 8 7 7 6 6
13 17 14 12 13 9 4 4 7 5 3 7 9 7 7 7 5 4 3 2 1 2 1 1 3 3 2 3 4 4 1 2 3 3 2 4 1 4 4 5 6 7 3 4 5 2 1 3 5 6 5 4 3 1 4 5 2 4 6 7 6 6 6 5 5 4 3 2 4 6 1 1 5 6 4 3 2 6 7 6 7 7 8 7 7 7 6 5
9 15 16 13 13 10 6 5 6 5 5 7 8 8 8 5 3 4 2 4 2 2 1 2 2 2 6 7 2 2 2 2 0 1 2 1 3 6 3 2 6 7 4 6 4 1 2 1 2 4 3 5 4 3 2 2 4 7 6 7 7 6 5 4 3 4 4 2 6 6 2 1 3 6 4 2 3 5 2 4 6 7 7 7 7 7 7 6
8 12 17 15 12 10 7 3 5 6 5 6 9 8 5 3 3 5 5 3 2 2 1 1 1 4 11 11 4 1 2 2 0 4 3 1 3 4 2 2 4 5 4 4 3 4 4 3 1 1 1 4 6 5 3 3 4 7 5 5 5 4 5 4 4 4 2 4 6 5 2 2 3 5 4 5 6 5 3 3 5 7 8 7 7 7 7 6
8 10 15 15 12 10 7 5 6 6 3 6 8 4 4 3 2 5 3 1 2 3 4 4 2 5 10 8 4 3 3 2 0 4 5 3 3 3 3 4 4 3 2 3 1 3 3 1 2 3 1 4 6 5 4 6 5 5 5 6 5 2 3 2 3 1 3 5 4 2 1 2 5 8 8 10 9 6 7 7 5 6 7 7 7 7 7 6
7 9 11 12 11 11 9 7 7 5 4 6 4 3 5 4 6 6 2 1 1 2 3 3 2 5 9 7 4 4 3 2 2 2 2 3 4 4 2 3 5 5 3 4 3 2 1 4 3 1 1 2 5 5 3 1 1 4 5 5 4 3 2 2 4 2 3 4 3 2 1 2 4 5 8 12 9 6 7 8 6 5 6 7 7 7 6 6
5 7 8 9 9 10 10 8 6 5 5 4 3 4 5 6 5 4 4 3 1 2 2 4 6 7 7 5 5 5 3 1 4 4 3 3 5 5 4 4 3 5 4 3 3 5 4 4 4 4 2 3 5 4 6 6 3 2 4 5 5 5 5 4 4 3 4 3 3 3 2 3 2 1 6 8 6 5 5 6 5 5 6 6 6 5 5 6
5 5 7 8 7 8 11 9 5 4 4 3 4 5 7 8 3 3 6 4 1 2 3 3 7 8 4 2 1 4 3 2 3 4 4 5 6 7 6 5 4 4 6 5 2 2 4 4 5 1 1 5 5 3 4 7 2 1 2 5 3 4 5 3 3 5 3 1 2 2 3 4 3 4 6 4 3 5 5 5 4 4 6 4 5 6 6 6
4 5 5 7 7 7 10 10 5 4 4 4 5 7 6 5 3 3 4 4 4 5 6 4 4 5 4 1 2 5 1 3 4 4 4 3 3 6 6 5 6 6 6 7 3 2 3 3 5 3 2 2 3 2 2 4 3 2 2 3 4 4 7 5 2 1 3 1 3 2 3 5 3 5 7 3 3 5 5 4 4 2 4 6 6 5 5 6
4 4 3 4 6 8 8 8 5 3 3 4 6 8 3 1 3 3 2 3 5 7 9 5 2 4 5 3 5 6 2 3 4 3 4 3 2 5 6 4 5 8 7 5 2 3 5 1 4 1 1 2 1 2 4 3 3 5 3 5 4 2 5 4 2 3 4 2 5 1 4 5 1 3 7 5 3 1 1 3 5 4 4 7 5 4 4 5
4 4 1 3 7 8 6 5 3 1 4 4 7 7 1 1 2 2 1 3 5 5 6 5 3 3 5 5 5 5 4 4 5 4 4 4 4 5 8 5 4 8 8 3 2 2 5 2 4 1 2 3 4 3 2 4 3 5 4 3 4 3 1 2 2 1 1 2 4 4 3 3 4 5 3 1 4 4 4 3 5 6 6 6 5 6 6 5
3 3 1 3 7 7 7 6 4 2 3 5 8 6 1 1 2 2 1 2 3 5 5 5 2 2 4 6 5 5 4 5 7 5 3 4 4 4 8 5 3 7 8 4 3 3 4 4 2 2 1 2 3 2 4 1 4 4 3 3 3 3 4 2 2 3 3 3 3 4 4 3 6 6 5 7 7 7 6 5 6 6 5 4 4 5 5 5
1 2 1 5 8 8 7 6 3 2 2 5 5 3 1 1 1 3 1 0 2 2 3 4 3 4 4 3 3 5 4 4 7 5 3 5 4 4 6 5 4 6 6 4 3 3 3 3 3 2 3 1 2 3 7 7 4 3 3 4 2 1 2 2 1 2 4 4 2 2 4 5 6 4 8 9 7 9 9 8 7 5 4 2 0 0 1 3
1 2 1 5 8 9 8 6 2 2 2 1 1 1 1 1 1 2 3 2 2 1 2 4 4 5 5 4 3 5 4 4 6 5 3 5 5 4 5 6 7 7 5 3 3 4 2 3 4 2 0 4 4 4 4 6 6 6 6 7 7 4 4 3 2 1 2 3 4 3 4 7 5 3 6 7 6 9 8 8 8 6 5 3 3 3 3 1
1 1 2 5 10 12 8 4 1 1 1 1 1 1 1 1 1 0 2 3 3 1 2 3 3 3 4 4 3 5 6 4 5 6 4 6 7 4 3 4 8 10 8 4 3 4 3 4 4 2 3 6 5 4 1 2 2 4 3 4 5 4 5 6 5 3 1 1 2 3 2 7 5 1 2 4 5 8 7 7 7 6 5 4 4 5 5 4
1 1 1 4 10 12 6 2 3 3 1 2 1 0 0 1 1 1 0 2 2 2 2 1 1 2 2 2 3 6 7 5 5 6 4 4 5 4 4 6 8 9 8 5 3 2 2 4 4 1 3 4 5 5 3 2 3 2 1 2 5 3 3 5 5 4 3 3 3 3 3 7 6 3 2 1 3 5 5 6 6 5 5 5 5 5 5 6
1 0 0 1 5 7 4 3 4 4 3 2 2 0 1 1 1 2 1 1 1 2 2 1 1 1 1 2 3 6 7 4 5 6 3 3 4 1 2 7 9 8 6 4 5 5 3 2 4 3 2 3 4 4 3 2 2 3 3 2 5 5 6 4 2 3 2 5 7 5 5 7 5 4 3 2 3 3 4 5 4 3 3 4 6 6 6 6
1 1 1 2 1 1 2 2 2 3 4 4 3 3 1 1 2 3 3 1 1 3 2 0 0 2 2 2 2 2 3 2 3 4 2 2 2 2 2 3 7 8 4 2 4 6 5 4 5 6 6 6 6 5 4 4 3 1 2 5 6 7 9 5 3 3 4 6 7 6 7 5 3 3 1 1 2 4 5 5 5 4 4 5 5 4 3 3
1 1 0 2 3 2 0 0 2 3 5 6 3 4 5 4 2 2 4 3 2 3 2 1 1 3 2 2 3 2 2 1 2 3 4 3 3 1 2 1 3 5 3 4 5 6 4 3 5 8 10 10 8 5 4 8 7 5 6 8 8 8 10 7 4 5 7 3 3 7 7 5 5 4 5 5 4 5 4 3 3 3 3 4 5 6 7 8
1 1 2 2 0 1 1 1 1 2 4 6 4 3 8 7 2 1 3 3 3 4 2 1 2 3 2 3 3 2 2 1 3 3 4 3 2 1 2 2 3 1 2 4 4 5 4 3 6 8 9 8 5 5 6 8 10 12 11 11 10 10 11 10 8 11 6 4 6 10 6 7 11 7 7 9 5 3 4 4 3 5 7 7 7 7 9 9
0 0 1 1 1 2 2 2 3 2 2 5 4 3 7 8 5 3 3 1 1 4 3 1 3 5 6 6 4 2 3 2 0 2 3 2 1 1 2 2 2 3 2 2 0 3 5 5 5 6 6 5 2 4 7 8 7 8 10 12 13 12 13 14 15 15 9 7 13 9 9 12 14 7 8 10 5 2 1 2 1 3 5 7 7 7 7 7
0 1 2 2 2 1 1 1 5 4 3 5 3 4 8 10 9 6 2 3 1 2 4 4 4 6 6 6 5 3 4 4 2 2 2 2 2 2 2 1 1 3 4 3 1 2 4 3 3 6 5 4 3 4 6 8 6 4 7 10 12 14 16 17 18 17 12 11 11 3 6 13 10 6 9 9 5 4 1 1 2 3 4 5 5 5 4 4
1 1 1 2 2 1 2 2 5 4 3 4 4 4 6 10 12 8 3 4 5 3 4 6 5 6 7 6 6 4 6 6 5 3 4 3 2 2 2 3 2 3 4 2 1 1 1 2 1 5 4 4 3 4 4 6 7 5 5 6 9 13 15 16 15 10 6 8 10 4 6 12 6 7 8 7 3 4 4 1 4 4 3 1 3 3 3 3
2 1 2 2 1 0 1 2 3 4 3 4 5 4 5 8 11 8 3 3 5 5 6 8 6 5 4 5 6 7 7 6 6 5 6 6 4 3 1 2 4 3 3 1 1 2 1 1 2 4 3 5 3 5 4 5 5 1 4 8 11 11 10 10 8 6 7 10 11 7 9 12 5 7 4 4 3 5 6 5 5 1 2 4 5 3 4 5
3 3 2 3 1 1 1 2 2 4 4 5 6 3 2 3 5 7 4 2 4 6 7 9 8 5 4 7 10 10 7 6 5 5 4 2 1 1 1 2 4 4 3 3 2 2 2 3 2 3 4 2 0 6 6 6 5 3 9 12 12 10 7 4 3 5 10 11 8 8 11 11 3 7 4 2 3 6 6 6 4 3 4 4 4 2 3 5
Wind_Direction
192 202 197 189 188 188 183 184 187 187 184 187 191 187 183 183 186 188 189 187 186 190 195 198 201 205 207 208 209 199 189 184 174 173 182 195 194 182 184 204 221 209 196 189 185 175 141 89 113 116 110 89 25 301 7 14 68 58 82 105 155 179 189 179 178 196 182 179 195 215 177 132 151 189 148 68 49 65 44 4 330 312 324 277 286 302 167 167
200 206 196 190 190 188 184 185 188 188 187 192 191 185 182 184 189 189 188 188 188 193 197 199 202 206 208 206 202 191 177 178 177 192 200 192 190 189 187 201 204 191 184 180 187 166 129 99 117 103 84 75 355 0 18 344 74 87 108 104 218 203 194 190 180 197 198 170 169 175 169 142 161 164 130 149 9 44 99 313 346 333 314 352 359 144 158 167
202 202 192 191 190 188 187 185 187 188 188 196 193 187 186 187 188 187 186 189 192 196 198 199 201 206 209 205 197 187 170 153 164 228 209 188 185 195 199 198 187 177 174 165 169 151 128 135 134 107 67 67 348 13 69 3 56 145 119 97 242 214 210 219 186 209 237 177 144 149 168 135 172 167 144 163 153 91 197 222 330 281 265 316 64 144 156 168
204 199 189 191 191 191 190 187 192 193 191 199 199 194 192 188 186 187 187 189 194 198 199 199 200 205 210 206 190 181 158 114 248 217 189 184 184 194 197 188 178 172 171 160 157 149 117 119 116 92 75 77 340 14 118 290 227 144 119 168 229 196 183 221 189 227 251 173 147 134 117 128 221 180 141 142 133 273 246 218 199 208 209 185 188 161 160 171
203 197 188 189 191 192 192 192 197 196 196 202 201 199 193 191 190 190 190 190 195 199 201 201 201 205 207 202 185 178 146 98 236 189 175 185 186 191 185 180 178 172 169 159 154 139 118 113 91 65 70 101 6 38 216 274 106 97 140 195 204 156 104 239 187 216 191 124 113 120 143 175 169 136 150 146 155 230 233 217 209 200 179 170 176 170 167 176
200 194 187 189 191 191 191 193 199 198 200 200 198 198 191 194 196 194 195 193 196 200 203 203 200 203 201 192 185 178 150 152 216 162 176 184 181 185 177 177 176 167 165 155 149 129 106 82 81 87 68 79 123 128 223 291 70 111 261 233 204 190 192 328 7 249 151 118 132 156 174 149 120 200 189 166 192 220 219 226 216 196 172 166 162 165 172 181
197 193 187 190 191 189 191 192 198 202 200 194 191 193 190 196 197 198 199 197 200 199 202 203 198 200 189 174 174 147 118 245 212 156 175 177 177 180 171 174 167 161 167 150 138 127 102 87 112 137 90 77 165 159 219 348 46 97 162 277 172 190 218 343 9 12 121 135 178 172 126 135 158 184 144 197 229 236 249 286 203 166 157 157 156 173 184 187
197 195 188 192 193 188 191 194 197 200 198 190 186 186 189 196 197 199 201 201 203 199 202 199 194 191 175 166 150 75 351 248 180 162 172 172 176 174 168 169 160 163 167 154 146 145 125 115 151 147 97 193 173 141 165 57 38 88 157 205 111 87 319 344 21 48 73 118 148 112 117 212 194 163 133 235 246 250 259 31 118 139 144 160 171 183 189 193
199 196 191 193 196 191 191 195 197 198 195 184 184 189 191 195 196 199 201 202 201 199 199 192 190 181 171 167 110 108 229 204 167 170 172 172 176 173 170 167 165 169 161 156 152 147 149 154 179 171 143 201 151 130 144 104 235 177 132 146 103 21 336 3 27 25 29 44 63 110 112 316 238 204 266 248 251 245 94 79 115 138 151 177 183 187 189 195
195 197 197 197 201 202 196 196 198 196 193 189 190 197 199 199 198 199 201 201 198 197 192 187 187 174 174 164 94 147 221 158 166 177 172 173 173 173 172 166 171 175 162 154 152 143 151 175 176 150 132 135 120 118 139 134 187 151 105 96 73 11 329 25 53 345 354 22 47 149 199 302 307 302 258 267 293 111 103 94 138 155 170 189 190 195 196 198
192 196 201 203 208 209 201 200 201 195 194 194 195 207 209 208 205 203 202 197 193 191 186 184 181 174 176 144 117 188 214 159 173 176 172 174 173 176 173 169 174 177 167 149 172 164 135 156 146 115 123 147 119 78 103 139 105 112 114 89 8 357 350 25 77 335 347 84 48 133 174 298 352 278 227 272 332 100 137 136 168 182 194 199 198 202 202 209
193 197 204 210 212 207 201 203 201 198 200 196 201 214 211 212 211 207 200 191 188 186 181 180 179 176 162 98 146 202 176 161 175 174 174 173 172 177 172 173 177 177 173 157 186 176 133 151 129 100 214 147 126 98 145 100 81 101 100 99 338 0 14 351 58 307 341 122 293 111 46 301 244 236 225 228 7 47 134 173 199 210 218 216 212 214 213 220
194 198 205 210 214 205 198 201 201 203 203 196 202 207 206 216 215 206 194 183 181 180 179 178 178 173 143 100 218 192 165 169 175 175 174 173 176 178 173 176 173 168 171 164 178 167 146 162 132 115 135 109 123 180 115 63 66 100 55 98 357 8 353 324 22 301 341 136 304 108 215 282 255 252 248 282 13 87 157 222 224 228 234 236 228 227 230 228
198 204 208 210 216 207 198 200 202 204 201 196 197 195 209 217 208 198 182 175 175 174 177 176 173 167 130 222 237 193 183 178 174 172 170 177 176 168 167 168 167 167 159 148 159 155 150 155 123 105 102 97 129 102 54 23 38 75 42 55 33 59 266 304 338 210 149 261 5 97 154 265 271 277 274 298 300 158 206 234 229 236 238 238 234 231 240 236
198 204 208 210 218 210 198 199 201 201 195 192 194 199 209 202 194 183 168 168 168 170 173 169 168 156 88 293 266 192 187 176 171 173 170 174 168 160 166 158 151 147 135 130 140 136 131 133 105 88 97 30 81 86 43 11 24 42 87 321 344 161 262 310 321 159 151 296 34 90 193 268 278 276 273 326 58 163 208 236 239 247 243 239 237 232 239 244
194 199 205 209 216 208 197 197 196 194 190 190 194 192 185 172 170 159 154 155 152 161 159 155 168 152 118 248 238 164 184 179 173 172 169 172 170 161 152 140 127 124 120 116 123 117 100 98 72 81 116 66 84 96 65 33 2 5 101 199 276 177 272 315 326 329 76 218 15 67 209 265 291 276 274 337 64 129 207 252 256 250 249 244 236 236 239 249
191 195 206 212 213 205 196 193 184 185 191 187 170 154 146 141 145 142 138 133 129 135 132 143 175 150 108 112 115 190 195 176 171 167 162 168 169 154 140 123 107 112 105 101 112 95 55 51 41 83 69 71 102 96 84 39 279 300 54 144 230 192 207 287 289 319 39 87 317 17 236 251 275 287 290 309 56 60 282 264 258 247 250 250 240 245 244 245
188 197 209 209 205 196 193 189 178 183 184 164 141 130 125 119 121 125 129 126 113 98 96 119 140 149 234 199 181 201 171 159 162 156 151 150 149 148 139 110 108 105 85 72 77 55 25 25 64 106 39 54 110 103 132 206 200 187 179 160 212 218 205 248 256 259 41 62 269 351 284 263 271 286 291 290 351 313 274 265 265 258 249 250 246 246 245 245
193 204 201 192 189 186 186 183 180 185 175 152 136 125 114 103 94 103 130 130 114 104 132 185 154 159 216 215 191 124 131 146 149 149 144 138 139 132 106 96 100 94 95 89 44 40 67 51 66 114 129 160 183 161 169 197 174 168 175 150 157 177 224 243 252 266 85 100 253 238 241 267 276 282 283 287 348 299 276 283 277 267 255 251 246 244 246 245
194 191 180 174 176 176 175 178 180 181 172 156 144 127 113 109 88 78 224 236 195 161 204 208 161 139 235 210 130 117 121 128 132 146 146 147 144 123 73 54 63 59 101 142 140 81 89 117 167 182 187 192 188 165 142 148 139 138 129 111 147 165 222 249 264 303 4 130 260 245 250 271 271 273 271 278 331 312 274 276 268 263 259 253 246 247 245 242
177 173 171 170 172 172 175 180 175 174 175 164 155 136 137 160 125 160 209 279 257 223 269 219 142 108 19 121 143 138 118 91 49 113 148 160 147 139 57 26 92 75 352 157 140 50 74 144 209 213 194 177 154 143 115 100 90 95 125 121 124 176 211 245 241 319 359 118 265 358 325 274 262 269 270 269 286 269 250 250 256 256 255 255 254 255 253 253
165 164 166 170 172 172 172 169 164 173 180 173 171 174 210 178 135 156 153 150 250 28 74 184 87 60 26 128 164 158 82 91 102 278 176 149 127 158 167 66 122 152 301 112 110 61 68 198 229 218 164 109 98 120 102 91 88 81 109 126 136 206 243 286 301 340 9 53 271 345 332 279 263 261 264 258 251 254 246 237 246 253 257 256 250 253 259 265
155 154 155 156 157 158 156 158 172 186 183 179 191 235 201 164 139 150 129 101 189 14 70 132 96 92 56 130 193 168 89 135 170 225 217 140 130 170 135 104 127 136 129 154 142 133 147 247 240 179 138 112 91 94 98 89 81 88 108 129 164 247 180 244 299 338 11 70 269 316 306 283 283 280 276 270 255 265 272 258 254 248 247 253 255 259 262 264
149 149 148 144 146 147 148 167 184 188 184 187 207 216 165 148 156 159 102 82 156 244 193 189 140 156 146 150 185 150 118 144 165 191 195 145 140 139 139 137 127 127 168 169 145 151 196 262 180 121 120 121 114 111 122 121 79 46 140 140 164 214 174 173 300 346 4 26 26 353 320 293 315 334 295 299 326 300 307 312 286 261 251 267 281 277 262 258
158 154 145 144 158 155 152 177 194 183 181 195 216 196 149 145 170 170 88 77 161 305 307 227 136 186 178 134 152 160 127 102 180 203 187 147 139 129 148 138 124 157 179 140 128 156 225 270 128 120 97 99 115 141 171 151 142 291 221 175 176 176 164 154 38 50 36 359 353 24 0 292 317 328 279 304 344 317 319 321 291 288 299 293 283 275 264 261
170 168 155 147 147 150 156 191 201 179 175 206 213 181 151 148 168 173 92 62 276 260 165 170 147 180 177 140 144 142 113 201 283 26 116 139 137 111 131 118 74 164 171 137 128 163 226 350 87 128 124 104 103 130 200 152 123 219 233 177 153 131 128 128 91 71 75 271 321 48 103 266 310 308 274 311 333 313 318 313 298 309 315 298 280 279 275 270
170 171 168 162 148 154 170 174 175 170 167 218 200 180 164 151 158 162 77 45 282 198 140 180 304 165 172 171 141 134 162 213 121 63 82 119 332 53 116 178 109 141 172 126 124 218 166 76 60 89 100 109 119 155 199 142 121 207 226 133 123 116 125 130 98 86 190 244 329 19 108 242 297 274 272 321 331 317 325 319 315 322 317 314 308 296 283 266
163 161 170 171 157 164 187 145 166 175 170 181 181 182 164 145 151 128 83 98 251 133 136 232 142 144 153 72 91 111 207 203 124 175 353 80 100 43 101 188 151 134 139 119 169 249 128 138 159 120 94 123 176 206 181 127 107 227 194 122 120 119 122 115 92 88 16 11 321 320 77 197 274 275 300 346 334 309 313 308 312 319 317 322 322 314 303 281
155 165 174 165 155 169 185 156 176 193 183 166 171 179 160 142 141 86 82 188 197 71 107 131 123 136 125 89 64 55 27 41 123 210 2 79 79 47 117 183 134 114 49 87 162 224 56 199 194 138 124 177 196 221 164 126 101 180 142 100 77 73 78 75 87 98 45 29 252 267 325 183 268 287 310 359 302 264 277 287 292 303 306 309 319 326 330 331
137 166 173 161 162 175 165 162 186 173 159 162 164 168 155 133 118 113 167 216 148 79 16 120 157 159 140 137 66 12 84 39 28 91 36 82 35 32 103 144 97 100 34 38 92 249 313 280 186 120 144 181 148 100 123 135 132 134 109 74 58 34 34 46 52 77 62 319 254 253 282 162 266 284 264 217 225 218 229 304 305 315 323 320 327 339 348 351
120 152 163 165 177 174 151 169 188 155 142 154 156 160 143 78 82 147 198 219 121 95 76 138 194 145 153 157 149 120 102 35 268 136 129 155 54 51 122 121 76 77 45 38 36 331 353 27 327 269 167 131 99 76 40 21 84 104 89 84 78 4 10 25 2 37 97 258 261 260 270 162 219 267 260 244 250 228 199 249 295 315 320 320 324 334 342 342
122 142 158 170 181 170 158 180 180 163 159 159 155 147 105 88 170 190 213 258 152 183 173 171 210 170 161 151 124 143 129 78 223 151 145 150 146 160 162 165 152 104 135 176 136 352 20 37 295 313 250 148 107 83 43 10 29 75 91 94 89 12 10 359 316 347 213 244 268 271 246 199 231 251 258 262 259 234 218 221 237 280 292 305 325 334 334 332
128 141 157 169 173 170 172 179 177 179 181 170 158 68 80 142 206 197 189 269 201 180 142 127 123 151 149 138 144 156 114 125 187 152 134 131 155 198 230 181 146 119 171 180 126 112 325 309 303 51 291 198 136 127 128 180 99 118 131 124 120 119 98 261 269 285 256 260 288 290 264 255 269 263 247 251 254 234 226 232 231 242 259 281 303 314 318 323
125 138 156 164 166 168 170 173 177 179 180 172 132 88 120 186 205 150 155 213 221 52 58 106 111 126 141 142 178 174 94 141 180 136 122 123 147 198 225 223 154 98 115 141 142 163 171 273 231 165 214 195 167 174 153 146 148 164 155 128 139 155 155 204 221 209 241 277 305 297 265 198 197 252 229 233 263 274 259 269 277 264 258 271 297 318 330 339
119 133 150 158 166 164 164 173 178 168 169 132 112 148 179 197 201 138 167 188 169 60 39 74 113 129 151 67 197 202 130 159 184 131 152 167 170 193 194 199 191 130 131 156 200 171 152 244 259 269 259 163 170 229 126 112 108 231 125 106 154 186 140 137 182 171 173 309 302 260 235 215 203 273 269 250 304 314 294 306 332 302 292 334 3 354 348 345
116 125 136 150 167 168 164 168 166 163 156 114 140 190 202 199 186 179 172 146 146 136 109 80 93 134 173 120 199 229 128 119 158 146 183 197 196 200 191 194 190 176 163 156 168 163 143 262 298 344 346 133 166 230 104 119 176 162 129 172 212 175 114 114 207 82 82 224 270 225 242 292 326 297 298 334 10 343 331 349 28 338 327 18 25 1 351 344
111 113 124 143 162 178 172 157 148 151 123 123 182 202 200 165 171 174 162 127 138 135 126 136 160 153 170 169 191 207 169 117 155 166 188 197 230 199 192 226 198 184 189 156 159 197 153 205 310 37 128 301 305 114 62 35 123 123 176 207 192 122 90 105 178 7 43 237 275 273 231 283 338 279 313 2 44 29 48 46 54 55 36 42 36 16 2 340
105 96 77 166 166 181 185 173 183 116 86 140 209 214 151 88 182 176 157 141 128 120 134 161 167 143 167 179 187 186 170 164 172 175 174 189 246 201 174 201 197 186 201 164 131 205 141 138 308 12 159 298 351 94 80 358 54 127 181 174 116 138 159 88 146 169 128 234 284 302 272 258 201 224 300 55 146 147 138 109 87 91 80 68 56 39 20 1
111 90 9 199 175 181 183 179 185 83 94 184 210 219 196 122 226 234 190 135 104 114 154 181 161 125 171 173 164 169 181 178 172 179 179 183 241 219 176 186 189 188 197 152 135 192 138 142 258 312 242 304 15 120 192 237 32 58 103 103 78 133 163 157 151 159 171 198 270 307 318 271 228 216 200 195 184 158 145 132 124 120 105 93 72 49 27 17
115 87 284 198 181 187 178 154 128 108 163 204 198 203 229 113 265 277 274 84 79 114 168 187 163 145 162 163 158 174 179 165 168 185 203 185 214 239 205 190 169 177 177 120 119 171 129 151 204 305 341 206 192 217 190 168 149 113 126 160 173 88 110 153 144 117 139 162 191 281 299 268 249 216 197 206 186 161 157 149 152 153 136 144 118 47 333 1
76 79 230 190 171 172 159 135 120 167 178 203 139 155 213 129 59 324 345 60 95 103 137 149 152 149 153 153 177 181 158 147 172 186 211 203 200 224 220 187 155 147 139 113 150 176 152 152 166 150 197 202 227 258 195 174 174 168 179 189 178 153 124 148 242 254 114 150 171 185 266 263 253 211 208 214 178 169 167 145 153 172 172 198 250 246 235 269
96 119 209 186 171 166 152 144 180 142 131 190 170 169 167 107 96 351 6 45 64 55 71 97 115 136 156 160 164 166 153 155 183 186 202 208 195 200 217 171 151 152 153 158 185 179 130 109 127 159 214 216 246 282 210 169 133 130 186 194 165 152 134 149 206 227 149 176 150 126 256 267 270 272 237 231 179 169 168 142 149 182 202 224 256 264 256 250
126 149 163 182 180 171 152 162 182 160 197 211 185 301 35 88 106 163 35 38 53 58 51 57 100 123 172 160 144 165 170 170 188 193 201 202 201 215 200 158 151 156 160 163 170 165 123 106 123 185 304 308 314 337 15 53 93 119 236 168 149 169 144 145 177 174 163 193 153 108 260 264 282 328 348 302 130 137 161 163 160 185 224 248 256 260 257 250
148 130 41 219 193 179 168 185 185 181 182 153 135 267 351 43 149 147 135 139 131 107 94 115 162 133 163 135 134 173 184 182 193 199 190 181 203 238 161 164 160 158 171 187 175 178 198 157 128 122 30 356 335 333 328 286 187 186 215 171 160 148 109 99 127 121 198 216 171 160 234 254 284 331 24 62 98 141 198 215 194 168 191 232 246 245 238 243
107 86 332 331 354 150 192 192 158 163 164 152 165 181 168 284 211 160 148 154 154 140 128 157 123 90 106 97 78 142 171 147 180 190 161 182 230 3 29 194 182 178 194 202 158 164 183 181 147 148 171 193 205 214 216 197 169 193 203 180 178 154 143 156 135 131 229 225 167 184 232 249 297 315 252 191 185 213 243 255 246 213 198 219 242 258 264 306
120 123 144 336 356 21 305 112 115 161 171 164 175 181 173 200 256 157 157 183 193 146 109 67 108 79 67 99 96 141 189 54 78 163 161 186 229 311 345 326 174 179 158 120 142 142 135 191 185 181 200 205 201 201 163 134 147 204 205 180 184 180 172 168 130 176 213 187 171 225 232 239 254 235 232 242 213 217 260 280 258 261 285 307 337 354 359 7
108 148 155 147 322 224 274 306 183 184 174 168 177 185 180 189 225 145 179 209 191 154 118 67 144 148 161 157 129 158 192 82 61 144 159 172 204 284 327 46 71 38 80 123 160 126 113 216 208 194 217 221 194 195 176 153 174 198 193 182 187 185 177 174 190 212 193 120 241 235 187 227 245 214 218 247 237 246 318 12 19 342 335 339 356 8 8 6
100 94 195 127 111 197 224 218 178 173 177 174 175 172 178 186 188 182 191 203 164 162 155 154 195 187 175 161 154 166 167 146 125 170 151 134 118 35 357 57 66 7 46 102 148 110 139 210 205 179 215 235 190 186 184 176 186 192 186 189 188 182 182 189 209 219 184 182 242 227 158 221 242 193 205 235 210 184 326 47 23 312 315 325 346 16 19 3
71 42 308 5 70 190 269 132 145 162 186 180 181 174 176 185 192 196 163 112 148 202 177 193 212 192 176 160 148 162 182 175 190 210 168 129 124 112 93 127 91 22 65 98 49 103 154 211 193 161 192 228 199 180 177 171 171 187 195 194 187 187 193 198 212 221 206 214 248 223 173 240 247 176 214 234 168 143 101 37 297 280 291 314 344 25 31 352
147 185 305 31 58 33 356 84 142 168 191 189 207 202 181 187 193 195 167 151 179 196 184 199 194 162 171 177 164 191 208 174 157 186 175 150 167 178 162 175 167 32 41 93 96 18 170 212 136 126 170 236 210 159 152 151 158 181 210 208 198 197 203 211 218 218 203 235 259 258 251 267 251 171 215 247 198 124 89 169 254 272 285 348 41 41 27 347
141 76 102 100 55 349 32 64 138 165 187 200 206 197 192 204 196 186 193 203 186 174 184 195 178 133 153 182 190 215 214 173 158 179 176 160 168 186 193 177 153 102 44 84 73 24 88 160 48 91 164 244 221 146 126 81 84 95 255 229 208 199 206 216 216 198 187 217 238 242 254 264 231 159 186 249 199 138 135 192 222 281 73 98 83 40 354 342
133 29 68 107 48 273 158 83 142 182 200 207 205 182 169 205 186 171 189 234 201 193 202 194 170 136 150 191 210 218 200 170 170 179 172 155 154 201 192 163 148 132 124 127 95 38 102 119 88 126 170 250 93 131 122 76 63 275 249 224 206 205 208 178 153 208 207 204 209 219 236 248 201 139 158 202 159 148 162 194 189 118 115 116 96 36 330 320